Darstellungsparameter: Aktuell verwendete Einstellungen:
Skalierung der Graphiken ... ?
xyx+y,   Skalierungsfaktor:      Skalierung: Modus: x, Faktor: 1
Darstellungszeitraum ... ?
Vom - - bis: - -   Zeitraum: 05.09.2018 - 05.09.2018
Min/Max/Avg-Anzeige ... ?
Zeige MMA aktuell
Zeige MMA Monat
Zeige MMA alles
Zeige --A aktuell
Zeige --A Monat
Zeige --A alles
Keine MMA-Anzeige
MMA:
Keine MMA-Graphiken
MMA-Basis: 05.09.2018 - 05.09.2018
Quicknavigation für Darstellung... ?
Tage:      1T, 2T, 3T, 5T -1T -2T -3T -5T +1T +2T +3T +5T
Wochen: 1W, 2W, 3W -1W -2W -3W +1W +2W +3W
Monate: 1M, 3M, 6M -1M -3M -6M +1M +3M +6M
Jahre:    1J, 3J, 5J, 10J -1J -3J -5J -10J +1J +3J +5J +10J
Nutze für die Darstellung ... ?
Originaldaten oder Mittelwerte auf ...
Stundenbasis Tagesbasis Wochenbasis
Monatsbasis Jahresbasis      Datenbasis: Original-Daten
Darstellen als:
Statistik (Auto) Statistik J:M      Darstellung:
Zur Graphik,    zurück zur Übersicht aller Sensoren.
 
Tabellarische Datenbersicht: ?
 
Sensor: Nr:Datum:Temp:Feuchte:Taupunkt:
Aussen-T/F 1 05-09-2018 00:00:00 19.6 C 79 % 15.86 C
2 05-09-2018 00:05:00 19.6 C 79 % 15.86 C
3 05-09-2018 00:10:00 19.6 C 80 % 16.06 C
4 05-09-2018 00:15:00 19.6 C 80 % 16.06 C
5 05-09-2018 00:20:00 19.5 C 80 % 15.96 C
6 05-09-2018 00:25:00 19.5 C 80 % 15.96 C
7 05-09-2018 00:30:00 19.4 C 80 % 15.86 C
8 05-09-2018 00:35:00 19.4 C 80 % 15.86 C
9 05-09-2018 00:40:00 19.4 C 80 % 15.86 C
10 05-09-2018 00:45:00 19.4 C 80 % 15.86 C
11 05-09-2018 00:50:00 19.3 C 80 % 15.76 C
12 05-09-2018 00:55:00 19.3 C 80 % 15.76 C
13 05-09-2018 01:00:00 19.2 C 80 % 15.67 C
14 05-09-2018 01:05:00 19.2 C 81 % 15.86 C
15 05-09-2018 01:10:00 19.2 C 81 % 15.86 C
16 05-09-2018 01:15:00 19.2 C 81 % 15.86 C
17 05-09-2018 01:20:00 19.2 C 81 % 15.86 C
18 05-09-2018 01:25:00 19.1 C 81 % 15.76 C
19 05-09-2018 01:30:00 19.1 C 81 % 15.76 C
20 05-09-2018 01:35:00 19.1 C 81 % 15.76 C
21 05-09-2018 01:40:00 19.1 C 81 % 15.76 C
22 05-09-2018 01:45:00 19.1 C 81 % 15.76 C
23 05-09-2018 01:50:00 19 C 81 % 15.67 C
24 05-09-2018 01:55:00 18.9 C 81 % 15.57 C
25 05-09-2018 02:00:00 18.9 C 81 % 15.57 C
Sensor: Nr:Datum:Temp:Feuchte:Taupunkt:
Aussen-T/F 26 05-09-2018 02:05:00 18.8 C 82 % 15.66 C
27 05-09-2018 02:10:00 18.7 C 82 % 15.57 C
28 05-09-2018 02:15:00 18.5 C 82 % 15.37 C
29 05-09-2018 02:20:00 18.4 C 83 % 15.46 C
30 05-09-2018 02:25:00 18.3 C 83 % 15.36 C
31 05-09-2018 02:30:00 18.3 C 83 % 15.36 C
32 05-09-2018 02:35:00 18.2 C 83 % 15.27 C
33 05-09-2018 02:40:00 18.1 C 83 % 15.17 C
34 05-09-2018 02:45:00 17.9 C 84 % 15.16 C
35 05-09-2018 02:50:00 17.8 C 84 % 15.06 C
36 05-09-2018 02:55:00 17.6 C 84 % 14.87 C
37 05-09-2018 03:00:00 17.4 C 85 % 14.85 C
38 05-09-2018 03:05:00 17.3 C 85 % 14.76 C
39 05-09-2018 03:10:00 17.1 C 86 % 14.74 C
40 05-09-2018 03:15:00 17.1 C 87 % 14.92 C
41 05-09-2018 03:20:00 16.9 C 86 % 14.54 C
42 05-09-2018 03:25:00 16.8 C 87 % 14.62 C
43 05-09-2018 03:30:00 16.7 C 87 % 14.53 C
44 05-09-2018 03:35:00 16.7 C 87 % 14.53 C
45 05-09-2018 03:40:00 16.6 C 88 % 14.6 C
46 05-09-2018 03:45:00 16.5 C 88 % 14.51 C
47 05-09-2018 03:50:00 16.4 C 88 % 14.41 C
48 05-09-2018 03:55:00 16.3 C 88 % 14.31 C
49 05-09-2018 04:00:00 16.3 C 88 % 14.31 C
50 05-09-2018 04:05:00 16.2 C 89 % 14.39 C
Sensor: Nr:Datum:Temp:Feuchte:Taupunkt:
Aussen-T/F 51 05-09-2018 04:10:00 16.1 C 89 % 14.29 C
52 05-09-2018 04:15:00 16 C 89 % 14.19 C
53 05-09-2018 04:20:00 15.9 C 89 % 14.09 C
54 05-09-2018 04:25:00 15.8 C 90 % 14.16 C
55 05-09-2018 04:30:00 15.9 C 91 % 14.43 C
56 05-09-2018 04:35:00 15.8 C 90 % 14.16 C
57 05-09-2018 04:40:00 15.8 C 90 % 14.16 C
58 05-09-2018 04:45:00 15.8 C 91 % 14.33 C
59 05-09-2018 04:50:00 15.8 C 91 % 14.33 C
60 05-09-2018 04:55:00 15.8 C 91 % 14.33 C
61 05-09-2018 05:00:00 15.9 C 92 % 14.6 C
62 05-09-2018 05:05:00 16 C 92 % 14.7 C
63 05-09-2018 05:10:00 16.1 C 92 % 14.8 C
64 05-09-2018 05:15:00 16.1 C 92 % 14.8 C
65 05-09-2018 05:20:00 16.1 C 92 % 14.8 C
66 05-09-2018 05:25:00 16.2 C 92 % 14.9 C
67 05-09-2018 05:30:00 16.2 C 92 % 14.9 C
68 05-09-2018 05:35:00 16.2 C 92 % 14.9 C
69 05-09-2018 05:40:00 16.2 C 92 % 14.9 C
70 05-09-2018 05:45:00 16.2 C 92 % 14.9 C
71 05-09-2018 05:50:00 16.2 C 91 % 14.73 C
72 05-09-2018 05:55:00 16.1 C 91 % 14.63 C
73 05-09-2018 06:00:00 16.1 C 91 % 14.63 C
74 05-09-2018 06:05:00 16.1 C 91 % 14.63 C
75 05-09-2018 06:10:00 16 C 91 % 14.53 C
Sensor: Nr:Datum:Temp:Feuchte:Taupunkt:
Aussen-T/F 76 05-09-2018 06:15:00 15.9 C 91 % 14.43 C
77 05-09-2018 06:20:00 15.9 C 91 % 14.43 C
78 05-09-2018 06:25:00 15.8 C 91 % 14.33 C
79 05-09-2018 06:30:00 15.8 C 91 % 14.33 C
80 05-09-2018 06:35:00 15.7 C 91 % 14.24 C
81 05-09-2018 06:40:00 15.6 C 91 % 14.14 C
82 05-09-2018 06:45:00 15.5 C 92 % 14.21 C
83 05-09-2018 06:50:00 15.6 C 92 % 14.31 C
84 05-09-2018 06:55:00 15.5 C 92 % 14.21 C
85 05-09-2018 07:00:00 15.4 C 92 % 14.11 C
86 05-09-2018 07:05:00 15.4 C 92 % 14.11 C
87 05-09-2018 07:10:00 15.4 C 92 % 14.11 C
88 05-09-2018 07:15:00 15.3 C 92 % 14.01 C
89 05-09-2018 07:20:00 15.3 C 92 % 14.01 C
90 05-09-2018 07:25:00 15.3 C 93 % 14.18 C
91 05-09-2018 07:30:00 15.3 C 93 % 14.18 C
92 05-09-2018 07:35:00 15.3 C 93 % 14.18 C
93 05-09-2018 07:40:00 15.3 C 93 % 14.18 C
94 05-09-2018 07:45:00 15.3 C 93 % 14.18 C
95 05-09-2018 07:50:00 15.3 C 93 % 14.18 C
96 05-09-2018 07:55:00 15.4 C 93 % 14.27 C
97 05-09-2018 08:00:00 15.5 C 94 % 14.54 C
98 05-09-2018 08:05:00 15.6 C 94 % 14.64 C
99 05-09-2018 08:10:00 15.6 C 94 % 14.64 C
100 05-09-2018 08:15:00 15.7 C 93 % 14.57 C
Sensor: Nr:Datum:Temp:Feuchte:Taupunkt:
Aussen-T/F 101 05-09-2018 08:20:00 15.7 C 93 % 14.57 C
102 05-09-2018 08:25:00 15.8 C 93 % 14.67 C
103 05-09-2018 08:30:00 15.8 C 93 % 14.67 C
104 05-09-2018 08:35:00 15.9 C 94 % 14.94 C
105 05-09-2018 08:40:00 16 C 93 % 14.87 C
106 05-09-2018 08:45:00 16 C 93 % 14.87 C
107 05-09-2018 08:50:00 16.1 C 93 % 14.97 C
108 05-09-2018 08:55:00 16.1 C 93 % 14.97 C
109 05-09-2018 09:00:00 16.2 C 93 % 15.07 C
110 05-09-2018 09:05:00 16.2 C 93 % 15.07 C
111 05-09-2018 09:10:00 16.3 C 93 % 15.17 C
112 05-09-2018 09:15:00 16.4 C 93 % 15.27 C
113 05-09-2018 09:20:00 16.5 C 93 % 15.36 C
114 05-09-2018 09:25:00 16.6 C 93 % 15.46 C
115 05-09-2018 09:30:00 16.7 C 93 % 15.56 C
116 05-09-2018 09:35:00 16.8 C 93 % 15.66 C
117 05-09-2018 09:40:00 16.9 C 93 % 15.76 C
118 05-09-2018 09:45:00 17 C 93 % 15.86 C
119 05-09-2018 09:50:00 17.1 C 93 % 15.96 C
120 05-09-2018 09:55:00 17.2 C 92 % 15.89 C
121 05-09-2018 10:00:00 17.3 C 92 % 15.99 C
122 05-09-2018 10:05:00 17.4 C 92 % 16.09 C
123 05-09-2018 10:10:00 17.6 C 91 % 16.11 C
124 05-09-2018 10:15:00 17.8 C 91 % 16.31 C
125 05-09-2018 10:20:00 18 C 91 % 16.51 C
Sensor: Nr:Datum:Temp:Feuchte:Taupunkt:
Aussen-T/F 126 05-09-2018 10:25:00 18.2 C 90 % 16.53 C
127 05-09-2018 10:30:00 18.3 C 90 % 16.63 C
128 05-09-2018 10:35:00 18.5 C 89 % 16.65 C
129 05-09-2018 10:40:00 18.7 C 89 % 16.85 C
130 05-09-2018 10:45:00 18.8 C 88 % 16.77 C
131 05-09-2018 10:50:00 19 C 87 % 16.79 C
132 05-09-2018 10:55:00 19.2 C 87 % 16.98 C
133 05-09-2018 11:00:00 19.4 C 86 % 17 C
134 05-09-2018 11:05:00 19.6 C 86 % 17.19 C
135 05-09-2018 11:10:00 19.8 C 84 % 17.02 C
136 05-09-2018 11:15:00 20 C 83 % 17.02 C
137 05-09-2018 11:20:00 20.2 C 82 % 17.03 C
138 05-09-2018 11:25:00 20.6 C 81 % 17.22 C
139 05-09-2018 11:30:00 20.8 C 79 % 17.02 C
140 05-09-2018 11:35:00 21.1 C 77 % 16.91 C
141 05-09-2018 11:40:00 21.4 C 76 % 16.99 C
142 05-09-2018 11:45:00 21.7 C 75 % 17.07 C
143 05-09-2018 11:50:00 22 C 74 % 17.15 C
144 05-09-2018 11:55:00 22.3 C 73 % 17.23 C
145 05-09-2018 12:00:00 22.5 C 72 % 17.2 C
146 05-09-2018 12:05:00 22.7 C 71 % 17.17 C
147 05-09-2018 12:10:00 22.9 C 70 % 17.14 C
148 05-09-2018 12:15:00 23.1 C 69 % 17.1 C
149 05-09-2018 12:20:00 23.2 C 68 % 16.97 C
150 05-09-2018 12:25:00 23.4 C 66 % 16.69 C
Sensor: Nr:Datum:Temp:Feuchte:Taupunkt:
Aussen-T/F 151 05-09-2018 12:30:00 23.6 C 66 % 16.88 C
152 05-09-2018 12:35:00 23.7 C 66 % 16.97 C
153 05-09-2018 12:40:00 23.8 C 64 % 16.58 C
154 05-09-2018 12:45:00 24.1 C 63 % 16.62 C
155 05-09-2018 12:50:00 24.3 C 63 % 16.81 C
156 05-09-2018 12:55:00 24.4 C 62 % 16.65 C
157 05-09-2018 13:00:00 24.6 C 61 % 16.58 C
158 05-09-2018 13:05:00 24.7 C 61 % 16.67 C
159 05-09-2018 13:10:00 24.8 C 60 % 16.51 C
160 05-09-2018 13:15:00 25.1 C 58 % 16.26 C
161 05-09-2018 13:20:00 25.2 C 57 % 16.08 C
162 05-09-2018 13:25:00 25.4 C 56 % 15.99 C
163 05-09-2018 13:30:00 25.4 C 56 % 15.99 C
164 05-09-2018 13:35:00 25.6 C 56 % 16.17 C
165 05-09-2018 13:40:00 25.7 C 56 % 16.26 C
166 05-09-2018 13:45:00 25.9 C 55 % 16.17 C
167 05-09-2018 13:50:00 26.1 C 54 % 16.07 C
168 05-09-2018 13:55:00 26.2 C 53 % 15.87 C
169 05-09-2018 14:00:00 26.3 C 53 % 15.96 C
170 05-09-2018 14:05:00 26.3 C 51 % 15.36 C
171 05-09-2018 14:10:00 26.4 C 51 % 15.45 C
172 05-09-2018 14:15:00 26.4 C 51 % 15.45 C
173 05-09-2018 14:20:00 26.6 C 51 % 15.63 C
174 05-09-2018 14:25:00 26.7 C 50 % 15.42 C
175 05-09-2018 14:30:00 26.8 C 49 % 15.19 C
Sensor: Nr:Datum:Temp:Feuchte:Taupunkt:
Aussen-T/F 176 05-09-2018 14:35:00 26.8 C 50 % 15.51 C
177 05-09-2018 14:40:00 27 C 48 % 15.05 C
178 05-09-2018 14:45:00 27.2 C 47 % 14.91 C
179 05-09-2018 14:50:00 27.3 C 47 % 15 C
180 05-09-2018 14:55:00 27.3 C 47 % 15 C
181 05-09-2018 15:00:00 27.3 C 48 % 15.33 C
182 05-09-2018 15:05:00 27.4 C 48 % 15.42 C
183 05-09-2018 15:10:00 27.4 C 47 % 15.09 C
184 05-09-2018 15:15:00 27.4 C 47 % 15.09 C
185 05-09-2018 15:20:00 27.5 C 48 % 15.51 C
186 05-09-2018 15:25:00 27.6 C 47 % 15.27 C
187 05-09-2018 15:30:00 27.6 C 46 % 14.94 C
188 05-09-2018 15:35:00 27.5 C 47 % 15.18 C
189 05-09-2018 15:40:00 27.5 C 49 % 15.83 C
190 05-09-2018 15:45:00 27.4 C 48 % 15.42 C
191 05-09-2018 15:50:00 27.4 C 48 % 15.42 C
192 05-09-2018 15:55:00 27.4 C 50 % 16.06 C
193 05-09-2018 16:00:00 27.3 C 48 % 15.33 C
194 05-09-2018 16:05:00 27.3 C 52 % 16.58 C
195 05-09-2018 16:10:00 27.4 C 50 % 16.06 C
196 05-09-2018 16:15:00 27.5 C 46 % 14.85 C
197 05-09-2018 16:20:00 27.8 C 46 % 15.12 C
198 05-09-2018 16:25:00 28 C 44 % 14.61 C
199 05-09-2018 16:30:00 28.2 C 44 % 14.79 C
200 05-09-2018 16:35:00 28.4 C 43 % 14.62 C
Sensor: Nr:Datum:Temp:Feuchte:Taupunkt:
Aussen-T/F 201 05-09-2018 16:40:00 28.6 C 43 % 14.8 C
202 05-09-2018 16:45:00 28.8 C 45 % 15.68 C
203 05-09-2018 16:50:00 29.1 C 43 % 15.24 C
204 05-09-2018 16:55:00 29.2 C 43 % 15.33 C
205 05-09-2018 17:00:00 29.2 C 42 % 14.97 C
206 05-09-2018 17:05:00 29.3 C 41 % 14.68 C
207 05-09-2018 17:10:00 29.2 C 41 % 14.59 C
208 05-09-2018 17:15:00 28.9 C 41 % 14.33 C
209 05-09-2018 17:20:00 28.7 C 43 % 14.88 C
210 05-09-2018 17:25:00 28.5 C 43 % 14.71 C
211 05-09-2018 17:30:00 28.4 C 44 % 14.97 C
212 05-09-2018 17:35:00 28.3 C 50 % 16.88 C
213 05-09-2018 17:40:00 28.1 C 50 % 16.7 C
214 05-09-2018 17:45:00 27.9 C 50 % 16.51 C
215 05-09-2018 17:50:00 27.6 C 50 % 16.24 C
216 05-09-2018 17:55:00 27.3 C 52 % 16.58 C
217 05-09-2018 18:00:00 27.1 C 52 % 16.4 C
218 05-09-2018 18:05:00 26.8 C 52 % 16.12 C
219 05-09-2018 18:10:00 26.6 C 53 % 16.23 C
220 05-09-2018 18:15:00 26.4 C 53 % 16.05 C
221 05-09-2018 18:20:00 26.3 C 54 % 16.25 C
222 05-09-2018 18:25:00 26.3 C 55 % 16.54 C
223 05-09-2018 18:30:00 26.2 C 55 % 16.45 C
224 05-09-2018 18:35:00 26.2 C 56 % 16.73 C
225 05-09-2018 18:40:00 26.2 C 55 % 16.45 C
Sensor: Nr:Datum:Temp:Feuchte:Taupunkt:
Aussen-T/F 226 05-09-2018 18:45:00 26.1 C 56 % 16.64 C
227 05-09-2018 18:50:00 26 C 56 % 16.54 C
228 05-09-2018 18:55:00 25.8 C 56 % 16.36 C
229 05-09-2018 19:00:00 25.7 C 56 % 16.26 C
230 05-09-2018 19:05:00 25.4 C 57 % 16.26 C
231 05-09-2018 19:10:00 25.2 C 58 % 16.35 C
232 05-09-2018 19:15:00 25 C 57 % 15.89 C
233 05-09-2018 19:20:00 24.8 C 57 % 15.7 C
234 05-09-2018 19:25:00 24.6 C 57 % 15.52 C
235 05-09-2018 19:30:00 24.3 C 58 % 15.51 C
236 05-09-2018 19:35:00 24.1 C 58 % 15.32 C
237 05-09-2018 19:40:00 23.9 C 60 % 15.66 C
238 05-09-2018 19:45:00 23.6 C 60 % 15.38 C
239 05-09-2018 19:50:00 23.4 C 62 % 15.71 C
240 05-09-2018 19:55:00 23.2 C 63 % 15.77 C
241 05-09-2018 20:00:00 22.9 C 63 % 15.48 C
242 05-09-2018 20:05:00 22.8 C 64 % 15.64 C
243 05-09-2018 20:10:00 22.7 C 64 % 15.54 C
244 05-09-2018 20:15:00 22.7 C 66 % 16.02 C
245 05-09-2018 20:20:00 22.6 C 66 % 15.93 C
246 05-09-2018 20:25:00 22.6 C 66 % 15.93 C
247 05-09-2018 20:30:00 22.6 C 65 % 15.69 C
248 05-09-2018 20:35:00 22.7 C 65 % 15.78 C
249 05-09-2018 20:40:00 22.7 C 64 % 15.54 C
250 05-09-2018 20:45:00 22.9 C 64 % 15.73 C
Sensor: Nr:Datum:Temp:Feuchte:Taupunkt:
Aussen-T/F 251 05-09-2018 20:50:00 23 C 64 % 15.82 C
252 05-09-2018 20:55:00 23.1 C 65 % 16.16 C
253 05-09-2018 21:00:00 22.9 C 64 % 15.73 C
254 05-09-2018 21:05:00 22.8 C 65 % 15.88 C
255 05-09-2018 21:10:00 22.7 C 65 % 15.78 C
256 05-09-2018 21:15:00 22.5 C 66 % 15.83 C
257 05-09-2018 21:20:00 22.3 C 66 % 15.64 C
258 05-09-2018 21:25:00 22.1 C 66 % 15.45 C
259 05-09-2018 21:30:00 21.9 C 67 % 15.5 C
260 05-09-2018 21:35:00 21.7 C 68 % 15.54 C
261 05-09-2018 21:40:00 21.5 C 68 % 15.35 C
262 05-09-2018 21:45:00 21.3 C 69 % 15.38 C
263 05-09-2018 21:50:00 21.1 C 69 % 15.19 C
264 05-09-2018 21:55:00 21 C 70 % 15.32 C
265 05-09-2018 22:00:00 20.8 C 71 % 15.35 C
266 05-09-2018 22:05:00 20.7 C 71 % 15.25 C
267 05-09-2018 22:10:00 20.6 C 71 % 15.16 C
268 05-09-2018 22:15:00 20.5 C 71 % 15.06 C
269 05-09-2018 22:20:00 20.4 C 72 % 15.18 C
270 05-09-2018 22:25:00 20.3 C 72 % 15.09 C
271 05-09-2018 22:30:00 20.2 C 72 % 14.99 C
272 05-09-2018 22:35:00 20.1 C 73 % 15.11 C
273 05-09-2018 22:40:00 19.9 C 73 % 14.92 C
274 05-09-2018 22:45:00 19.7 C 74 % 14.94 C
275 05-09-2018 22:50:00 19.5 C 75 % 14.95 C
Sensor: Nr:Datum:Temp:Feuchte:Taupunkt:
Aussen-T/F 276 05-09-2018 22:55:00 19.3 C 75 % 14.76 C
277 05-09-2018 23:00:00 19.1 C 76 % 14.77 C
278 05-09-2018 23:05:00 18.8 C 77 % 14.68 C
279 05-09-2018 23:10:00 18.7 C 78 % 14.79 C
280 05-09-2018 23:15:00 18.6 C 78 % 14.69 C
281 05-09-2018 23:20:00 18.4 C 79 % 14.69 C
282 05-09-2018 23:25:00 18.3 C 79 % 14.6 C
283 05-09-2018 23:30:00 18.2 C 79 % 14.5 C
284 05-09-2018 23:35:00 18.2 C 80 % 14.69 C
285 05-09-2018 23:40:00 18.1 C 80 % 14.6 C
286 05-09-2018 23:45:00 17.9 C 80 % 14.4 C
287 05-09-2018 23:50:00 17.9 C 81 % 14.59 C
288 05-09-2018 23:55:00 17.8 C 81 % 14.5 C

Legende:
   Min
   Max


Maximal/Minimal-Werte vom 05.09.2018 - 05.09.2018

Sensor Min Max Avg
Temp
(Aussen-T/F)
15.3 °C
05-09-2018  07:15:00
29.3 °C
05-09-2018  17:05:00
20.92 °C
Feuchte
(Aussen-T/F)
41 %
05-09-2018  17:05:00
94 %
05-09-2018  08:00:00
73.32 %
Taupunkt
(Aussen-T/F)
14.01 C
05-09-2018  07:15:00
17.23 C
05-09-2018  11:55:00
15.39 C

Die Daten stammen von einer Davis Vantage Pro 2 Wetter-Station und werden unter Linux mit der Software wview2wettercgi und aufbereitet. Alle Angaben erfolgen ohne Gewähr für ihre Vollständigkeit oder Richtigkeit.
Kontakt: Rainer Krienke krienke@uni-koblenz.de . Meine Webseiten an der Uni Koblenz oder privat.
Version: $Revision: 0.78 $